CW5478 Weather Reports


Display with metric or nautical units.
time (UTC)temp
F
wind
direction
speed
MPH
gust
MPH
rain 1hr
in
rain 24hr
in
rain mn
in
humidity
%
barometer
mb
20260503225304 58 158 2.0 10.0 0.00 0.00 0.00 24 1022.3
20260503224804 58 223 9.0 14.0 0.00 0.00 0.00 25 1022.2
20260503224303 58 270 9.0 14.0 0.00 0.00 0.00 25 1022.3
20260503223303 59 308 2.0 6.0 0.00 0.00 0.00 23 1022.2
20260503222803 59 232 10.0 18.0 0.00 0.00 0.00 24 1022.3
20260503222304 58 270 12.0 18.0 0.00 0.00 0.00 25 1022.3
20260503221804 58 241 13.0 20.0 0.00 0.00 0.00 25 1022.1
20260503221304 58 259 10.0 17.0 0.00 0.00 0.00 24 1022.3
20260503220803 58 254 9.0 15.0 0.00 0.00 0.00 24 1022.5
20260503220303 59 315 7.0 17.0 0.00 0.00 0.00 24 1022.3
20260503215804 59 207 7.0 13.0 0.00 0.00 0.00 24 1022.5
20260503215304 58 273 5.0 10.0 0.00 0.00 0.00 24 1022.7
20260503214804 59 126 6.0 14.0 0.00 0.00 0.00 25 1022.7
20260503214304 59 249 9.0 21.0 0.00 0.00 0.00 25 1022.7
20260503213803 60 208 9.0 17.0 0.00 0.00 0.00 24 1022.7
20260503213304 60 226 13.0 20.0 0.00 0.00 0.00 24 1023.0
20260503212803 60 323 4.0 8.0 0.00 0.00 0.00 24 1023.0
20260503212305 60 348 7.0 14.0 0.00 0.00 0.00 24 1023.0
20260503211803 59 2 12.0 16.0 0.00 0.00 0.00 25 1023.0
20260503211303 59 45 6.0 15.0 0.00 0.00 0.00 24 1023.0
20260503210804 59 339 7.0 12.0 0.00 0.00 0.00 24 1023.3
20260503210304 59 0 8.0 12.0 0.00 0.00 0.00 24 1023.3
20260503204804 58 316 10.0 14.0 0.00 0.00 0.00 25 1023.7
20260503204304 58 253 8.0 13.0 0.00 0.00 0.00 25 1023.7
20260503203804 59 307 6.0 13.0 0.00 0.00 0.00 25 1023.7
20260503203304 59 225 9.0 20.0 0.00 0.00 0.00 25 1023.9
20260503202803 59 221 9.0 21.0 0.00 0.00 0.00 25 1023.9
20260503202304 59 224 11.0 18.0 0.00 0.00 0.00 24 1024.0
20260503201804 58 198 9.0 16.0 0.00 0.00 0.00 25 1024.0
20260503201303 57 232 9.0 18.0 0.00 0.00 0.00 25 1024.0
20260503200304 58 259 12.0 17.0 0.00 0.00 0.00 27 1024.0
20260503195804 58 244 11.0 18.0 0.00 0.00 0.00 25 1024.0
20260503195304 57 247 10.0 15.0 0.00 0.00 0.00 24 1024.3
20260503194803 56 303 3.0 20.0 0.00 0.00 0.00 25 1024.3
20260503194304 57 246 13.0 21.0 0.00 0.00 0.00 27 1024.3
20260503193803 57 250 19.0 29.0 0.00 0.00 0.00 27 1024.3
20260503193304 57 225 15.0 23.0 0.00 0.00 0.00 27 1024.6
20260503192804 56 234 8.0 17.0 0.00 0.00 0.00 26 1024.6
20260503192305 57 253 7.0 15.0 0.00 0.00 0.00 25 1024.7
20260503190804 57 264 16.0 24.0 0.00 0.00 0.00 26 1024.3
20260503190303 57 227 12.0 20.0 0.00 0.00 0.00 26 1024.7
20260503185804 57 205 12.0 18.0 0.00 0.00 0.00 27 1024.7
20260503185304 56 229 16.0 23.0 0.00 0.00 0.00 28 1024.7
20260503184304 56 236 16.0 25.0 0.00 0.00 0.00 28 1024.8
20260503183805 56 250 14.0 22.0 0.00 0.00 0.00 28 1024.8
20260503182804 56 236 16.0 26.0 0.00 0.00 0.00 28 1024.9
20260503182305 56 228 11.0 17.0 0.00 0.00 0.00 28 1025.4
20260503181803 56 331 2.0 14.0 0.00 0.00 0.00 29 1025.4
20260503181304 56 312 10.0 20.0 0.00 0.00 0.00 29 1025.4
20260503180804 55 246 12.0 17.0 0.00 0.00 0.00 30 1025.4
20260503180304 55 283 12.0 18.0 0.00 0.00 0.00 29 1025.7
20260503175804 56 216 9.0 18.0 0.00 0.00 0.00 29 1025.5
20260503175305 56 273 14.0 25.0 0.00 0.00 0.00 28 1025.4
20260503174804 55 224 13.0 20.0 0.00 0.00 0.00 28 1025.7
20260503174304 55 230 14.0 20.0 0.00 0.00 0.00 28 1025.7
20260503173804 55 229 12.0 21.0 0.00 0.00 0.00 27 1025.7
20260503173304 55 253 12.0 21.0 0.00 0.00 0.00 27 1025.7
20260503172803 55 255 10.0 20.0 0.00 0.00 0.00 27 1025.7
20260503171803 55 251 10.0 20.0 0.00 0.00 0.00 27 1025.7
20260503171304 54 285 10.0 16.0 0.00 0.00 0.00 27 1025.7
20260503170803 54 251 9.0 16.0 0.00 0.00 0.00 27 1025.7
20260503170303 55 288 11.0 17.0 0.00 0.00 0.00 27 1025.9
20260503150803 51 278 8.0 17.0 0.00 0.00 0.00 33 1026.2
20260503150304 51 235 14.0 20.0 0.00 0.00 0.00 34 1026.2
20260503140302 47 271 8.0 13.0 0.00 0.00 0.00 42 1026.4
20260503131303 46 347 3.0 6.0 0.00 0.00 0.00 42 1026.0
20260503130802 46 46 1.0 6.0 0.00 0.00 0.00 41 1026.0
20260503130302 46 4 5.0 8.0 0.00 0.00 0.00 40 1026.0
20260503110802 40 249 10.0 13.0 0.00 0.00 0.00 48 1025.7
20260503110303 40 264 10.0 13.0 0.00 0.00 0.00 48 1025.7
20260503090302 41 247 1.0 8.0 0.00 0.00 0.00 38 1025.7
20260503081303 42 225 5.0 6.0 0.00 0.00 0.00 38 1025.7
20260503080802 42 225 5.0 8.0 0.00 0.00 0.00 37 1025.7
20260503080302 42 247 5.0 7.0 0.00 0.00 0.00 37 1025.7
20260503072802 44 225 5.0 8.0 0.00 0.00 0.00 34 1026.0
20260503072305 45 67 3.0 5.0 0.00 0.00 0.00 33 1026.0
20260503071802 45 0 3.0 9.0 0.00 0.00 0.00 34 1026.0
20260503070803 45 339 6.0 10.0 0.00 0.00 0.00 32 1026.0
20260503070303 45 112 3.0 7.0 0.00 0.00 0.00 32 1026.0
20260503060302 45 312 8.0 12.0 0.00 0.00 0.00 30 1026.0
20260503054803 44 63 4.0 6.0 0.00 0.00 0.00 30 1025.7
20260503054302 43 239 6.0 8.0 0.00 0.00 0.00 31 1026.0
20260503053803 43 22 1.0 6.0 0.00 0.00 0.00 32 1026.0
20260503052803 43 22 3.0 3.0 0.00 0.00 0.00 31 1026.0
20260503051802 44 247 2.0 6.0 0.00 0.00 0.00 32 1026.0
20260503051302 44 326 1.0 3.0 0.00 0.00 0.00 31 1026.0
20260503050803 45 289 3.0 5.0 0.00 0.00 0.00 30 1026.0
20260503050303 45 90 1.0 3.0 0.00 0.00 0.00 29 1026.0
20260503045802 45 299 2.0 5.0 0.00 0.00 0.00 29 1026.0
20260503045304 46 45 3.0 6.0 0.00 0.00 0.00 29 1026.0
20260503044802 45 275 2.0 5.0 0.00 0.00 0.00 29 1026.0
20260503044302 44 270 6.0 9.0 0.00 0.00 0.00 33 1026.0
20260503043803 42 270 7.0 8.0 0.00 0.00 0.00 35 1026.0
20260503042803 42 184 6.0 12.0 0.00 0.00 0.00 36 1026.0
20260503041802 43 225 4.0 6.0 0.00 0.00 0.00 35 1026.0
20260503041303 43 45 3.0 5.0 0.00 0.00 0.00 34 1026.2
20260503040802 43 182 2.0 8.0 0.00 0.00 0.00 35 1026.2
20260503035802 45 180 5.0 6.0 0.00 0.00 0.00 34 1026.2
20260503035304 44 225 6.0 12.0 0.00 0.00 0.00 33 1026.0
20260503034802 42 251 5.0 12.0 0.00 0.00 0.00 38 1026.0
20260503034302 41 157 1.0 5.0 0.00 0.00 0.00 41 1025.9
20260503033803 41 180 4.0 8.0 0.00 0.00 0.00 41 1026.0
20260503033302 41 200 8.0 9.0 0.00 0.00 0.00 40 1026.0
20260503032802 41 225 7.0 8.0 0.00 0.00 0.00 40 1026.0
20260503032304 42 225 7.0 9.0 0.00 0.00 0.00 38 1026.0
20260503031802 42 225 8.0 9.0 0.00 0.00 0.00 36 1026.0
20260503031303 42 225 9.0 12.0 0.00 0.00 0.00 37 1026.0
20260503030303 44 251 9.0 10.0 0.00 0.00 0.00 34 1026.0
20260503025802 45 225 7.0 8.0 0.00 0.00 0.00 31 1026.0
20260503025304 45 225 8.0 13.0 0.00 0.00 0.00 29 1025.8
20260503024802 46 225 7.0 12.0 0.00 0.00 0.00 28 1025.9
20260503024302 46 245 9.0 14.0 0.00 0.00 0.00 27 1025.8
20260503023802 46 225 9.0 12.0 0.00 0.00 0.00 28 1025.8
20260503022803 45 225 7.0 13.0 0.00 0.00 0.00 28 1025.7
20260503022304 44 270 12.0 17.0 0.00 0.00 0.00 32 1025.7
20260503021802 43 225 8.0 10.0 0.00 0.00 0.00 35 1025.8
20260503020803 43 225 9.0 10.0 0.00 0.00 0.00 37 1025.7
20260503020302 43 227 6.0 10.0 0.00 0.00 0.00 39 1025.7
20260503015802 42 258 9.0 10.0 0.00 0.00 0.00 41 1025.7
20260503014803 43 219 7.0 8.0 0.00 0.00 0.00 45 1025.7
20260503014302 44 225 8.0 10.0 0.00 0.00 0.00 42 1025.7
20260503013803 45 253 7.0 10.0 0.00 0.00 0.00 43 1025.7
20260503012803 47 225 8.0 9.0 0.00 0.00 0.00 43 1025.7
20260503012305 48 225 7.0 8.0 0.00 0.00 0.00 42 1025.7
20260503010802 53 138 6.0 8.0 0.00 0.00 0.00 32 1025.8
20260503010303 53 142 7.0 8.0 0.00 0.00 0.00 31 1025.7
20260503005802 53 114 7.0 10.0 0.00 0.00 0.00 31 1025.7
20260503005304 53 123 5.0 12.0 0.00 0.00 0.00 30 1025.7
20260503004803 53 111 6.0 12.0 0.00 0.00 0.00 30 1025.7
20260503004303 53 135 6.0 8.0 0.00 0.00 0.00 29 1025.9
20260503003302 54 90 6.0 13.0 0.00 0.00 0.00 29 1025.9
20260503002802 54 125 7.0 13.0 0.00 0.00 0.00 29 1026.0
20260503002305 55 135 7.0 10.0 0.00 0.00 0.00 29 1026.0
20260503001802 55 150 6.0 12.0 0.00 0.00 0.00 28 1025.8
20260503001303 55 103 5.0 10.0 0.00 0.00 0.00 28 1026.0
20260503000802 55 135 5.0 9.0 0.00 0.00 0.00 28 1026.0
20260502235803 54 135 9.0 12.0 0.00 0.00 0.00 30 1025.8
20260502235304 54 90 7.0 8.0 0.00 0.00 0.00 30 1026.0
20260502234803 54 135 7.0 10.0 0.00 0.00 0.00 30 1026.0
20260502234303 55 94 6.0 10.0 0.00 0.00 0.00 30 1026.0
20260502233802 55 127 2.0 9.0 0.00 0.00 0.00 30 1026.2
20260502233303 55 110 6.0 8.0 0.00 0.00 0.00 30 1026.0
20260502232802 55 75 4.0 10.0 0.00 0.00 0.00 30 1026.0
20260502232304 56 110 6.0 12.0 0.00 0.00 0.00 31 1026.0
20260502231803 55 60 1.0 9.0 0.00 0.00 0.00 31 1026.0
20260502231302 54 120 4.0 8.0 0.00 0.00 0.00 31 1026.2
20260502230803 54 90 4.0 10.0 0.00 0.00 0.00 32 1026.0
20260502230303 55 90 10.0 14.0 0.00 0.00 0.00 32 1026.0
20260502225803 55 101 8.0 12.0 0.00 0.00 0.00 31 1026.0